Starlink 6157

operational
NORAD ID: 56379 Int'l Des: 2023-061 Owner: SPXS Country: US Constellation: starlink
LEOCIRCULAR

Über Starlink 6157

Beschreibung wird geladen...

Live-Position

3D-Globus wird geladen...

Nächste Überflüge

Höhenverlauf

Altitude vs Time

uPlot chart will show altitude changes over time

Zweizeiliger Elementsatz

1 56379U 23061F 25259.17497292 .00000882 00000-0 80388-4 0 9995
2 56379 43.0039 65.6845 0001408 287.5913 72.4776 15.02539022131606
Epoch: 16. Sept. 2025 • Age: 14 hours

Aktueller Status

Höhe 559.4 km
Geschwindigkeit 7.58 km/s
Subsatellitenpunkt -2.12°S, 17.66°W
Startdatum 4. Mai 2023
Alter 2.3 years
Typ internet

Technische Details

Klassifizierung Payload
Masse 305.00 kg
Trockenmasse 290.00 kg
Gesamtmasse 305.00 kg
Länge 0.20 m
Durchmesser 2.80 m
Spannweite 9.00 m
Form Box + pan
Hersteller SPXS
Bus-Typ Starlink
Phasenstatus In Orbit
Besitzer/Staat SPXS/US

Große Konstellationen

Loading constellations...